This is the latest recevied weather packets stored in our database for station/object K1BES. If no packets are shown the sender has not sent any weather packets the latest 10 day(s).
| Time | Temp. | Humidity | Pressure | Rain* | Wind** | Luminosity | Snow |
|---|---|---|---|---|---|---|---|
| 1787840001 | 32.78° C | 67% | 1019 hPa | 0 mm | - | 564 W/m² | - |
| 1787839700 | 32.78° C | 66% | 1019 hPa | 0 mm | - | 541 W/m² | - |
| 1787839395 | 32.78° C | 68% | 1018.9 hPa | 0 mm | - | 512 W/m² | - |
| 1787839095 | 32.22° C | 67% | 1018.8 hPa | 0 mm | - | 492 W/m² | - |
| 1787838794 | 32.22° C | 68% | 1018.8 hPa | 0 mm | - | 472 W/m² | - |
| 1787838489 | 32.22° C | 68% | 1019 hPa | 0 mm | - | 450 W/m² | - |
| 1787838188 | 32.22° C | 68% | 1019 hPa | 0 mm | - | 429 W/m² | - |
| 1787837882 | 32.22° C | 70% | 1018.9 hPa | 0 mm | - | 409 W/m² | - |
| 1787837581 | 31.67° C | 72% | 1018.9 hPa | 0 mm | - | 386 W/m² | - |
| 1787837281 | 31.67° C | 71% | 1018.8 hPa | 0 mm | - | 248 W/m² | - |
| 1787836976 | 31.67° C | 72% | 1018.5 hPa | 0 mm | - | 162 W/m² | - |
| 1787836671 | 31.11° C | 71% | 1018.6 hPa | 0 mm | - | 77 W/m² | - |
| 1787836370 | 30.56° C | 72% | 1018.7 hPa | 0 mm | - | 292 W/m² | - |
| 1787836066 | 30.56° C | 73% | 1018.9 hPa | 0 mm | - | 284 W/m² | - |
| 1787835762 | 30.56° C | 74% | 1018.4 hPa | 0 mm | - | 277 W/m² | - |
| 1787835461 | 30.56° C | 73% | 1018.5 hPa | 0 mm | - | 213 W/m² | - |
| 1787835157 | 30° C | 75% | 1018.5 hPa | 0 mm | - | 241 W/m² | - |
| 1787834856 | 30.56° C | 74% | 1018.5 hPa | 0 mm | - | 211 W/m² | - |
| 1787834551 | 30.56° C | 74% | 1018.7 hPa | 0 mm | - | 97 W/m² | - |
| 1787834246 | 30° C | 77% | 1018.3 hPa | 0 mm | - | 77 W/m² | - |
| 1787833943 | 29.44° C | 77% | 1018.4 hPa | 0 mm | - | 72 W/m² | - |
| 1787833643 | 28.33° C | 80% | 1018.4 hPa | 0 mm | - | 78 W/m² | - |
| 1787833339 | 27.78° C | 83% | 1018.1 hPa | 0 mm | - | 64 W/m² | - |
| 1787833034 | 27.22° C | 85% | 1018.1 hPa | 0 mm | - | 60 W/m² | - |
| 1787832729 | 26.67° C | 86% | 1018.2 hPa | 0 mm | - | 70 W/m² | - |
* Rain latest hour (hover to see other rain measurements)
** Current wind speed in m/s (hover to see current wind gust speed)